Weather History for KCDA - April, 2013

Change the Weather History Date:

Thursday, April 4, 2013

  Actual Average (K1V4) Record (K1V4)
Temperature  
Mean Temperature 36 °F 39 °F  
Max Temperature 48 °F 50 °F 73 °F (1981)
Min Temperature 24 °F 28 °F -2 °F (1954)
Degree Days  
Heating Degree Days 29 26  
Month to date heating degree days 106  
Since 1 July heating degree days 6906  
Cooling Degree Days 0 0  
Month to date cooling degree days 0  
Year to date cooling degree days 0  
Moisture  
Dew Point 7 °F    
Average Humidity 31    
Maximum Humidity 52    
Minimum Humidity 14    
Precipitation  
Precipitation 0.00 in 0.10 in 0.92 in (1960)
Month to date precipitation 0.37  
Year to date precipitation 7.56  
Sea Level Pressure  
Sea Level Pressure 30.07 in    
Wind  
Wind Speed 9 mph (WSW)    
Max Wind Speed 18 mph    
Max Gust Speed 23 mph    
Visibility 10 miles    
Events      
T = Trace of Precipitation, MM = Missing Value Source: NWS Daily Summary

Daily Weather History Graph

Daily Weather History Graph

Search for Another Location

Airport or City:

Trip Planner

Search our weather history database for the weather conditions in past years. The results will help you decide how hot, cold, wet, or windy it might be!

Date:

Astronomy

Apr. 04, 2013 Rise Set
Actual Time 6:23 AM EDT 7:19 PM EDT
Civil Twilight 5:53 AM EDT 7:49 PM EDT
Nautical Twilight 5:18 AM EDT 8:24 PM EDT
Astronomical Twilight 4:41 AM EDT 9:01 PM EDT
Moon 3:01 AM EDT (4/4) 1:21 PM EDT (4/4)
Length of Visible Light 13h 55m
Length of Day
12h 56m
Waning Crescent, 34% of the Moon is Illuminated
Apr 4
Waning Crescent
Apr 10
New
Apr 18
First Quarter
Apr 25
Full
May 2
Last Quarter

Hourly Weather History & Observations

Time (EDT) Temp. Windchill Dew Point Humidity Pressure Visibility Wind Dir Wind Speed Gust Speed Precip Events Conditions
12:15 AM 28.2 °F 18.9 °F 12.2 °F 51% 30.11 in 10.0 mi West 10.4 mph 17.3 mph N/A   Clear
12:35 AM 27.9 °F 19.1 °F 12.2 °F 52% 30.11 in 10.0 mi West 9.2 mph 19.6 mph N/A   Clear
12:55 AM 28.0 °F 18.6 °F 11.7 °F 50% 30.11 in 10.0 mi West 10.4 mph - N/A   Clear
1:15 AM 27.9 °F 19.8 °F 10.9 °F 49% 30.12 in 10.0 mi West 8.1 mph - N/A   Clear
1:35 AM 27.7 °F 20.4 °F 9.9 °F 47% 30.12 in 10.0 mi West 6.9 mph 21.9 mph N/A   Clear
1:55 AM 27.7 °F 19.6 °F 9.0 °F 45% 30.12 in 10.0 mi West 8.1 mph - N/A   Clear
2:15 AM 28.0 °F 19.3 °F 8.1 °F 43% 30.12 in 10.0 mi WNW 9.2 mph - N/A   Clear
2:35 AM 27.5 °F 19.3 °F 7.5 °F 43% 30.12 in 10.0 mi WNW 8.1 mph - N/A   Clear
2:55 AM 28.0 °F 20.0 °F 6.6 °F 40% 30.13 in 10.0 mi WNW 8.1 mph - N/A   Clear
3:15 AM 27.3 °F 17.1 °F 6.8 °F 42% 30.13 in 10.0 mi WNW 11.5 mph - N/A   Clear
3:35 AM 27.3 °F 19.1 °F 6.3 °F 41% 30.12 in 10.0 mi WNW 8.1 mph - N/A   Clear
3:55 AM 27.3 °F 18.4 °F 6.3 °F 41% 30.13 in 10.0 mi WNW 9.2 mph - N/A   Clear
4:15 AM 26.6 °F 18.2 °F 6.1 °F 42% 30.14 in 10.0 mi WNW 8.1 mph - N/A   Clear
4:35 AM 26.1 °F 18.4 °F 6.6 °F 44% 30.14 in 10.0 mi NW 6.9 mph - N/A   Clear
4:55 AM 25.7 °F 19.0 °F 6.3 °F 44% 30.14 in 10.0 mi WNW 5.8 mph - N/A   Clear
5:15 AM 25.0 °F 18.1 °F 6.4 °F 45% 30.14 in 10.0 mi NW 5.8 mph - N/A   Clear
5:35 AM 25.7 °F 20.1 °F 6.1 °F 43% 30.15 in 10.0 mi WNW 4.6 mph - N/A   Clear
5:55 AM 25.3 °F - 5.5 °F 43% 30.16 in 10.0 mi Calm Calm - N/A   Clear
6:15 AM 24.8 °F - 5.9 °F 45% 30.16 in 10.0 mi Calm Calm - N/A   Clear
6:35 AM 25.2 °F 20.9 °F 5.7 °F 44% 30.18 in 10.0 mi West 3.5 mph - N/A   Clear
6:55 AM 25.0 °F 18.1 °F 7.2 °F 47% 30.18 in 10.0 mi West 5.8 mph - N/A   Clear
7:15 AM 25.3 °F 21.1 °F 8.1 °F 48% 30.19 in 10.0 mi NW 3.5 mph - N/A   Clear
7:35 AM 26.6 °F 21.2 °F 7.7 °F 45% 30.19 in 10.0 mi West 4.6 mph - N/A   Clear
7:55 AM 27.7 °F 21.3 °F 7.3 °F 42% 30.20 in 10.0 mi West 5.8 mph - N/A   Clear
8:15 AM 28.9 °F 21.9 °F 6.4 °F 39% 30.21 in 10.0 mi West 6.9 mph - N/A   Clear
8:35 AM 30.2 °F 21.9 °F 6.8 °F 37% 30.20 in 10.0 mi West 9.2 mph - N/A   Clear
8:55 AM 31.3 °F 23.9 °F 6.4 °F 35% 30.20 in 10.0 mi West 8.1 mph - N/A   Clear
9:15 AM 32.0 °F 24.2 °F 4.8 °F 32% 30.20 in 10.0 mi West 9.2 mph 16.1 mph N/A   Clear
9:35 AM 33.1 °F 26.1 °F 3.6 °F 29% 30.19 in 10.0 mi West 8.1 mph 19.6 mph N/A   Clear
9:55 AM 34.7 °F 27.5 °F 3.4 °F 27% 30.19 in 10.0 mi West 9.2 mph - N/A   Clear
10:15 AM 35.1 °F 26.4 °F 1.9 °F 25% 30.18 in 10.0 mi West 12.7 mph - N/A   Clear
10:35 AM 36.7 °F 30.5 °F 2.8 °F 24% 30.16 in 10.0 mi SW 8.1 mph - N/A   Clear
10:55 AM 36.9 °F 30.1 °F 1.8 °F 23% 30.15 in 10.0 mi West 9.2 mph 17.3 mph N/A   Clear
11:15 AM 38.3 °F 30.5 °F 1.8 °F 22% 30.14 in 10.0 mi West 12.7 mph - N/A   Clear
11:35 AM 38.8 °F 34.6 °F 1.2 °F 21% 30.13 in 10.0 mi West 5.8 mph 10.4 mph N/A   Clear
11:55 AM 40.1 °F 36.1 °F 0.9 °F 19% 30.13 in 10.0 mi SSW 5.8 mph 18.4 mph N/A   Clear
12:35 PM 42.3 °F 36.3 °F 0.5 °F 18% 30.10 in 10.0 mi West 10.4 mph - N/A   Clear
12:55 PM 42.8 °F 36.6 °F -2.0 °F 15% 30.08 in 10.0 mi WSW 11.5 mph - N/A   Clear
1:15 PM 43.2 °F 39.0 °F -3.1 °F 14% 30.07 in 10.0 mi SW 6.9 mph - N/A   Clear
1:35 PM 44.4 °F 39.0 °F 1.9 °F 17% 30.07 in 10.0 mi WSW 10.4 mph 17.3 mph N/A   Clear
1:55 PM 45.1 °F 39.1 °F 0.1 °F 15% 30.06 in 10.0 mi WSW 12.7 mph 21.9 mph N/A   Clear
2:15 PM 45.1 °F 39.9 °F 1.4 °F 16% 30.05 in 10.0 mi SW 10.4 mph 18.4 mph N/A   Clear
2:35 PM 46.2 °F 39.0 °F 0.5 °F 15% 30.04 in 10.0 mi SSW 18.4 mph 23.0 mph N/A   Clear
2:55 PM 46.4 °F 40.4 °F 0.3 °F 15% 30.03 in 10.0 mi SW 13.8 mph 21.9 mph N/A   Clear
3:15 PM 47.7 °F - 0.9 °F 15% 30.02 in 10.0 mi SSW 10.4 mph 18.4 mph N/A   Clear
3:35 PM 48.2 °F - 2.1 °F 15% 30.01 in 10.0 mi SW 10.4 mph 17.3 mph N/A   Clear
3:55 PM 48.6 °F - 3.7 °F 16% 29.99 in 10.0 mi SSW 13.8 mph 21.9 mph N/A   Clear
4:15 PM 48.2 °F - 5.0 °F 17% 29.98 in 10.0 mi SW 12.7 mph 19.6 mph N/A   Clear
4:35 PM 48.2 °F - 5.2 °F 17% 29.98 in 10.0 mi SSW 12.7 mph 18.4 mph N/A   Clear
4:55 PM 48.4 °F - 5.0 °F 17% 29.97 in 10.0 mi SSW 13.8 mph 19.6 mph N/A   Clear
5:15 PM 48.0 °F - 5.4 °F 18% 29.96 in 10.0 mi SSW 15.0 mph 19.6 mph N/A   Clear
5:35 PM 48.4 °F - 6.1 °F 18% 29.96 in 10.0 mi SSW 11.5 mph 17.3 mph N/A   Clear
5:55 PM 47.7 °F - 6.4 °F 19% 29.96 in 10.0 mi SW 9.2 mph 17.3 mph N/A   Clear
6:15 PM 47.5 °F - 7.5 °F 20% 29.95 in 10.0 mi SSW 12.7 mph 18.4 mph N/A   Clear
6:35 PM 46.6 °F - 8.4 °F 21% 29.96 in 10.0 mi SW 10.4 mph - N/A   Clear
6:55 PM 45.7 °F 42.7 °F 9.1 °F 23% 29.96 in 10.0 mi SSW 5.8 mph - N/A   Clear
7:15 PM 44.1 °F 40.1 °F 10.0 °F 25% 29.96 in 10.0 mi SSW 6.9 mph - N/A   Clear
7:55 PM 42.4 °F 38.1 °F 11.1 °F 28% 29.95 in 10.0 mi South 6.9 mph - N/A   Clear
8:15 PM 41.7 °F 37.3 °F 11.8 °F 30% 29.95 in 10.0 mi SSW 6.9 mph - N/A   Clear
8:35 PM 41.0 °F 36.4 °F 12.4 °F 31% 29.96 in 10.0 mi SSW 6.9 mph - N/A   Clear
8:55 PM 41.0 °F 35.2 °F 12.7 °F 32% 29.96 in 10.0 mi SSW 9.2 mph - N/A   Clear
9:35 PM 41.0 °F 35.8 °F 11.7 °F 30% 29.96 in 10.0 mi SSW 8.1 mph - N/A   Clear
9:55 PM 41.0 °F 36.4 °F 11.5 °F 30% 29.96 in 10.0 mi SSW 6.9 mph - N/A   Clear
10:15 PM 40.5 °F 35.8 °F 11.8 °F 31% 29.95 in 10.0 mi SSW 6.9 mph - N/A   Clear
10:35 PM 40.8 °F 36.9 °F 12.0 °F 31% 29.95 in 10.0 mi South 5.8 mph - N/A   Clear
10:55 PM 39.4 °F 37.2 °F 12.0 °F 33% 29.94 in 10.0 mi SSE 3.5 mph - N/A   Clear
11:15 PM 38.8 °F 33.8 °F 13.5 °F 35% 29.93 in 10.0 mi South 6.9 mph - N/A   Clear
11:35 PM 39.4 °F 35.2 °F 13.1 °F 34% 29.92 in 10.0 mi South 5.8 mph - N/A   Clear
11:55 PM 38.7 °F 35.2 °F 13.3 °F 35% 29.91 in 10.0 mi SSE 4.6 mph - N/A   Clear